TIANHUI 2-01A (44207 NORAD) Tracking and Keplerian Element Data

This shows tracking and keplerian element data for the satellite.

Feedback or suggestion? Click here.




ElementValue
Catalog44207
NameTIANHUI 2-01A
Epoch Orbit392
Epoch Day145.86146071
Epoch Year2019
RAAN152.9904
Inclination97.4493
Eccentricity0.0001862
Argument of Perigee79.2806
Mean Anonmoly329.7627
Mean Motion15.16768389
Decay Rate1.75E-06
L11 44207U 19024A 19145.86146071 .00000175 00000-0 12271-4 0 9996
L22 44207 97.4493 152.9904 0001862 79.2806 329.7627 15.16768389 3928

Live tracking and technical data element details for TIANHUI 2-01A (NORAD 44207). TIANHUI 2-01A can be tracked NOW for your location showing map with azimuth and elevation plus other details from your city location.

Track the satellite on the map from your city or location and see movement details for azimuth, elevation, latitude, longitude, range, height, and movement on the map or in text.







IsCatalogInMostPopularTable: catalog: 44207, numindb: 2
Update: records affected: 1



GetName: 44207 TIANHUI 2-01A

Hit Count: updated at: Sun, 26 May 2019 07:55:31 GMT